Printer-friendly version

IAU Minor Planet Center

Minor Planet Center

MPEC 2002-E36 : 2002 EY2

The following Minor Planet Electronic Circular may be linked-to from your own Web pages, but must not otherwise be redistributed electronically.


Read MPEC 2002-E35 Read MPEC 2002-E37


M.P.E.C. 2002-E36                                Issued 2002 Mar. 12, 00:00 UT

     The Minor Planet Electronic Circulars contain information on unusual
         minor planets and routine data on comets.  They are published
   on behalf of Commission 20 of the International Astronomical Union by the
          Minor Planet Center, Smithsonian Astrophysical Observatory,
                          Cambridge, MA 02138, U.S.A.

             Prepared using the Tamkin Foundation Computer Network

                              MPC@CFA.HARVARD.EDU
          URL http://cfa-www.harvard.edu/iau/mpc.html  ISSN 1523-6714

                                   2002 EY2

Observations:
     K02E02Y* C2002 03 06.30472 10 56 37.69 +06 05 42.3          21.9 V      691
     K02E02Y  C2002 03 06.32620 10 56 34.82 +06 05 39.6          22.3 V      691
     K02E02Y  C2002 03 06.34889 10 56 31.90 +06 05 36.6          21.6 V      691
     K02E02Y  C2002 03 09.27252 10 50 28.42 +05 59 17.4          21.5 V      691
     K02E02Y  C2002 03 09.28042 10 50 27.46 +05 59 16.0          21.9 V      691
     K02E02Y  C2002 03 09.28844 10 50 26.44 +05 59 15.5          21.9 V      691
     K02E02Y  C2002 03 10.22006 10 48 34.58 +05 57 12.6          22.2 V      291
     K02E02Y  C2002 03 10.23545 10 48 32.67 +05 57 10.6          21.6 V      291
     K02E02Y  C2002 03 10.25198 10 48 30.66 +05 57 08.8          21.3 V      291

Observer details:
291 LPL/Spacewatch II.  Observer A. F. Tubbiolo.  1.8-m Spacewatch telescope.
691 Steward Observatory, Kitt Peak.  Observer T. H. Bressi.  0.9-m Spacewatch
    telescope.

Orbital elements:
2002 EY2                                                             PHA 0.020A
Epoch 2002 Mar. 7.0 TT = JDT 2452340.5                  MPC
M  78.23283              (2000.0)            P               Q
n   0.44508566     Peri.   50.98202     +0.80892973     -0.57920684
a   1.6989228      Node   343.59454     +0.36542833     +0.62962693
e   0.4705597      Incl.   20.90070     +0.46053754     +0.51777347
P   2.21           H   20.4           G   0.15
From 9 observations 2002 Mar. 6-10.

Ephemeris:
2002 EY2                 a,e,i = 1.70, 0.47, 21                  q = 0.8995
Date    TT    R. A. (2000) Decl.     Delta      r     Elong.  Phase     V
2002 03 07    10 55.16   +06 04.3    0.906    1.897   176.4     1.9    21.8
2002 03 17    10 36.07   +05 41.7    0.979    1.950   162.1     9.0    22.4
2002 03 27    10 21.74   +05 15.4    1.078    2.000   148.9    14.9    22.9
2002 04 06    10 12.56   +04 44.1    1.198    2.047   137.0    19.5    23.3
2002 04 16    10 08.10   +04 07.2    1.335    2.093   126.4    22.7    23.7

Gareth V. Williams           (C) Copyright 2002 MPC           M.P.E.C. 2002-E36

Read MPEC 2002-E35 Read MPEC 2002-E37


Our Web policy. Index to the CBAT/MPC/ICQ pages.


Valid HTML 4.01!